Weather History for New Orleans NAS, LA

Change the Weather History Date:

Saturday, September 7, 2013

  Actual Average Record
Temperature  
Mean Temperature 83 °F -  
Max Temperature 91 °F 86 °F 93 °F (2014)
Min Temperature 73 °F 71 °F 57 °F (2011)
Cooling Degree Days 18    
Growing Degree Days 33 (Base 50)    
Moisture  
Dew Point 73 °F    
Average Humidity 78    
Maximum Humidity 94    
Minimum Humidity 55    
Precipitation  
Precipitation 0.00 in - - ()
Sea Level Pressure  
Sea Level Pressure 30.02 in    
Wind  
Wind Speed 4 mph (East)    
Max Wind Speed 8 mph    
Max Gust Speed -    
Visibility 8 miles    
Events Fog , Thunderstorm    
Averages and records for this station are not official NWS values.
T = Trace of Precipitation, MM = Missing Value Source: NWS Daily Summary

Daily Weather History Graph

Daily Weather History Graph

Search for Another Location

Airport:

Trip Planner

Search our weather history database for the weather conditions in past years. The results will help you decide how hot, cold, wet, or windy it might be!

Date:

Astronomy

Sep. 07, 2013 Rise Set
Actual Time 6:40 AM CDT 7:14 PM CDT
Civil Twilight 6:16 AM CDT 7:39 PM CDT
Nautical Twilight 5:48 AM CDT 8:07 PM CDT
Astronomical Twilight 5:19 AM CDT 8:35 PM CDT
Moon 8:41 AM CDT (9/7) 8:29 PM CDT (9/7)
Length of Visible Light 13h 22m
Length of Day
12h 34m
Waxing Crescent, 5% of the Moon is Illuminated
Sep 7
Waxing Crescent
Sep 12
First Quarter
Sep 19
Full
Sep 26
Last Quarter
Oct 4
New

Hourly Weather History & Observations

Time (CDT) Temp. Heat Index Dew Point Humidity Pressure Visibility Wind Dir Wind Speed Gust Speed Precip Events Conditions
5:55 AM 75.0 °F - 72.1 °F 91% 30.01 in 10.0 mi Calm Calm - N/A   Scattered Clouds
6:55 AM 75.0 °F - 73.0 °F 94% 30.03 in 5.0 mi Calm Calm - N/A Fog Shallow Fog
7:55 AM 81.0 °F 87.9 °F 77.0 °F 88% 30.03 in 5.0 mi NNE 4.6 mph - N/A   Scattered Clouds
8:55 AM 84.0 °F 92.6 °F 75.9 °F 76% 30.05 in 6.0 mi NE 5.8 mph - N/A   Haze
9:27 AM 82.4 °F 88.2 °F 73.4 °F 74% 30.06 in 6.0 mi NE 8.1 mph - N/A Thunderstorm Unknown
9:55 AM 82.9 °F 90.2 °F 75.0 °F 77% 30.06 in 6.0 mi NE 5.8 mph - N/A   Haze
10:55 AM 88.0 °F 97.5 °F 75.0 °F 65% 30.06 in 7.0 mi NE 6.9 mph - N/A   Mostly Cloudy
11:55 AM 90.0 °F 99.0 °F 73.9 °F 59% 30.05 in 7.0 mi ENE 8.1 mph - N/A   Mostly Cloudy
12:55 PM 91.0 °F 100.4 °F 73.9 °F 57% 30.04 in 7.0 mi NE 8.1 mph - N/A   Mostly Cloudy
1:55 PM 87.1 °F 91.3 °F 69.1 °F 55% 30.01 in 7.0 mi East 8.1 mph - N/A   Mostly Cloudy
2:55 PM 84.9 °F 90.7 °F 72.0 °F 65% 30.00 in 10.0 mi SE 6.9 mph - N/A   Mostly Cloudy
3:55 PM 82.9 °F 88.0 °F 72.0 °F 69% 30.00 in 10.0 mi SSE 6.9 mph - N/A   Mostly Cloudy
4:55 PM 81.0 °F 85.8 °F 73.0 °F 77% 30.00 in 10.0 mi SSW 4.6 mph - N/A   Mostly Cloudy
5:55 PM 81.0 °F 85.8 °F 73.0 °F 77% 29.99 in 10.0 mi South 3.5 mph - N/A   Mostly Cloudy
6:55 PM 79.0 °F - 73.9 °F 84% 29.99 in 10.0 mi SSW 3.5 mph - N/A   Mostly Cloudy
7:55 PM 77.0 °F - 73.9 °F 90% 29.99 in 10.0 mi Calm Calm - N/A   Mostly Cloudy
8:55 PM 77.0 °F - 73.9 °F 90% 30.01 in 10.0 mi Calm Calm - N/A   Mostly Cloudy
9:55 PM 75.0 °F - 73.0 °F 94% 30.01 in 10.0 mi Calm Calm - N/A   Mostly Cloudy
10:55 PM 73.9 °F - 72.0 °F 93% 30.01 in 10.0 mi Calm Calm - N/A   Scattered Clouds